| time (UTC) | temp F | wind direction | speed knots | gust knots | rain 1hr in | rain 24hr in | rain mn in | humidity % | barometer mb |
| 20260502221025 | 49 | 321 | 0.0 | 4.3 | 0.00 | 0.00 | 0.00 | 53 | 1015.7 |
| 20260502220503 | 50 | 8 | 0.0 | 4.3 | 0.00 | 0.00 | 0.00 | 50 | 1015.7 |
| 20260502220003 | 50 | 348 | 0.0 | 1.7 | 0.00 | 0.00 | 0.00 | 49 | 1015.6 |
| 20260502215503 | 50 | 347 | 0.0 | 1.7 | 0.00 | 0.00 | 0.00 | 48 | 1015.5 |
| 20260502215024 | 50 | 40 | 0.0 | 4.3 | 0.00 | 0.00 | 0.00 | 49 | 1015.5 |
| 20260502214525 | 50 | 241 | 0.0 | 4.3 | 0.00 | 0.00 | 0.00 | 49 | 1015.5 |
| 20260502214003 | 51 | 284 | 0.0 | 0.0 | 0.00 | 0.00 | 0.00 | 50 | 1015.4 |
| 20260502213503 | 51 | 342 | 0.0 | 8.7 | 0.00 | 0.00 | 0.00 | 51 | 1015.3 |
| 20260502213003 | 50 | 26 | 0.0 | 8.7 | 0.00 | 0.00 | 0.00 | 50 | 1015.3 |
| 20260502212504 | 50 | 42 | 0.0 | 0.9 | 0.00 | 0.00 | 0.00 | 51 | 1015.2 |
| 20260502212025 | 51 | 24 | 0.0 | 0.9 | 0.00 | 0.00 | 0.00 | 49 | 1015.2 |
| 20260502211503 | 51 | 37 | 0.0 | 0.9 | 0.00 | 0.00 | 0.00 | 50 | 1015.2 |
| 20260502211024 | 51 | 322 | 0.0 | 0.9 | 0.00 | 0.00 | 0.00 | 47 | 1015.0 |
| 20260502210502 | 52 | 40 | 0.0 | 0.0 | 0.00 | 0.00 | 0.00 | 48 | 1014.9 |
| 20260502210024 | 51 | 123 | 0.0 | 0.0 | 0.00 | 0.00 | 0.00 | 49 | 1014.9 |
| 20260502205503 | 50 | 325 | 0.0 | 0.0 | 0.00 | 0.00 | 0.00 | 52 | 1014.8 |
| 20260502205003 | 50 | 266 | 0.0 | 0.0 | 0.00 | 0.00 | 0.00 | 52 | 1014.9 |
| 20260502204502 | 50 | 313 | 0.0 | 2.6 | 0.00 | 0.00 | 0.00 | 49 | 1015.0 |
| 20260502204003 | 51 | 315 | 0.0 | 2.6 | 0.00 | 0.00 | 0.00 | 49 | 1014.9 |
| 20260502203503 | 51 | 355 | 0.0 | 0.9 | 0.00 | 0.00 | 0.00 | 48 | 1014.8 |
| 20260502203002 | 51 | 188 | 0.0 | 0.0 | 0.00 | 0.00 | 0.00 | 50 | 1014.8 |
| 20260502202503 | 51 | 331 | 0.0 | 10.4 | 0.00 | 0.00 | 0.00 | 48 | 1014.9 |
| 20260502202003 | 51 | 18 | 0.0 | 10.4 | 0.00 | 0.00 | 0.00 | 47 | 1015.0 |
| 20260502201503 | 52 | 38 | 0.0 | 1.7 | 0.00 | 0.00 | 0.00 | 49 | 1014.9 |
| 20260502201003 | 52 | 312 | 0.0 | 0.9 | 0.00 | 0.00 | 0.00 | 48 | 1014.9 |
| 20260502200503 | 52 | 333 | 0.0 | 0.9 | 0.00 | 0.00 | 0.00 | 47 | 1015.0 |
| 20260502200003 | 52 | 342 | 0.0 | 6.1 | 0.00 | 0.00 | 0.00 | 47 | 1014.9 |
| 20260502195503 | 52 | 333 | 0.0 | 8.7 | 0.00 | 0.00 | 0.00 | 48 | 1015.0 |
| 20260502195003 | 53 | 21 | 0.9 | 10.4 | 0.00 | 0.00 | 0.00 | 45 | 1015.0 |
| 20260502194503 | 53 | 332 | 0.9 | 10.4 | 0.00 | 0.00 | 0.00 | 45 | 1015.0 |
| 20260502194003 | 53 | 325 | 0.0 | 7.0 | 0.00 | 0.00 | 0.00 | 46 | 1015.0 |
| 20260502193503 | 53 | 331 | 0.0 | 7.0 | 0.00 | 0.00 | 0.00 | 44 | 1014.9 |
| 20260502193003 | 54 | 16 | 0.0 | 9.6 | 0.00 | 0.00 | 0.00 | 43 | 1014.7 |
| 20260502192525 | 55 | 44 | 0.0 | 9.6 | 0.00 | 0.00 | 0.00 | 44 | 1014.7 |
| 20260502192003 | 55 | 337 | 0.9 | 7.8 | 0.00 | 0.00 | 0.00 | 46 | 1014.8 |
| 20260502191503 | 56 | 334 | 0.0 | 11.3 | 0.00 | 0.00 | 0.00 | 43 | 1014.8 |
| 20260502191024 | 56 | 17 | 1.7 | 11.3 | 0.00 | 0.00 | 0.00 | 45 | 1014.7 |
| 20260502190503 | 55 | 45 | 0.0 | 7.8 | 0.00 | 0.00 | 0.00 | 45 | 1014.7 |
| 20260502190004 | 55 | 23 | 0.0 | 4.3 | 0.00 | 0.00 | 0.00 | 48 | 1014.7 |
| 20260502185503 | 54 | 28 | 0.0 | 3.5 | 0.00 | 0.00 | 0.00 | 46 | 1014.8 |
| 20260502185003 | 54 | 342 | 0.0 | 0.0 | 0.00 | 0.00 | 0.00 | 49 | 1014.8 |
| 20260502184503 | 53 | 19 | 0.0 | 0.9 | 0.00 | 0.00 | 0.00 | 50 | 1014.9 |
| 20260502184045 | 53 | 90 | 0.0 | 0.9 | 0.00 | 0.00 | 0.00 | 50 | 1015.0 |
| 20260502183502 | 53 | 30 | 0.0 | 0.0 | 0.00 | 0.00 | 0.00 | 49 | 1015.1 |
| 20260502183008 | 53 | 309 | 0.0 | 0.0 | 0.00 | 0.00 | 0.00 | 48 | 1015.1 |
| 20260502182502 | 53 | 29 | 0.0 | 7.0 | 0.00 | 0.00 | 0.00 | 49 | 1015.0 |
| 20260502182024 | 53 | 356 | 0.0 | 7.0 | 0.00 | 0.00 | 0.00 | 48 | 1015.1 |
| 20260502181503 | 53 | 17 | 0.0 | 2.6 | 0.00 | 0.00 | 0.00 | 48 | 1015.1 |
| 20260502181003 | 53 | 343 | 0.0 | 2.6 | 0.00 | 0.00 | 0.00 | 47 | 1015.3 |
| 20260502180503 | 53 | 37 | 0.0 | 2.6 | 0.00 | 0.00 | 0.00 | 48 | 1015.4 |
| 20260502170503 | 52 | 298 | 0.0 | 0.0 | 0.00 | 0.00 | 0.00 | 50 | 1016.1 |
| 20260502164003 | 51 | 19 | 0.0 | 7.8 | 0.00 | 0.00 | 0.00 | 52 | 1016.3 |
| 20260502163503 | 51 | 32 | 0.0 | 4.3 | 0.00 | 0.00 | 0.00 | 54 | 1016.3 |
| 20260502163003 | 51 | 101 | 0.0 | 4.3 | 0.00 | 0.00 | 0.00 | 54 | 1016.4 |
| 20260502162503 | 51 | 325 | 0.0 | 0.9 | 0.00 | 0.00 | 0.00 | 54 | 1016.5 |
| 20260502162003 | 51 | 342 | 0.0 | 0.9 | 0.00 | 0.00 | 0.00 | 51 | 1016.5 |
| 20260502161502 | 51 | 338 | 0.0 | 0.9 | 0.00 | 0.00 | 0.00 | 50 | 1016.6 |
| 20260502161003 | 51 | 36 | 0.0 | 6.1 | 0.00 | 0.00 | 0.00 | 52 | 1016.8 |
| 20260502160503 | 51 | 27 | 0.0 | 6.1 | 0.00 | 0.00 | 0.00 | 53 | 1016.8 |
| 20260502152007 | 47 | 5 | 0.0 | 3.5 | 0.00 | 0.00 | 0.00 | 59 | 1017.0 |
| 20260502151524 | 46 | 42 | 0.0 | 3.5 | 0.00 | 0.00 | 0.00 | 58 | 1016.9 |
| 20260502151003 | 46 | 341 | 0.0 | 1.7 | 0.00 | 0.00 | 0.00 | 59 | 1017.0 |
| 20260502150503 | 45 | 350 | 0.0 | 2.6 | 0.00 | 0.00 | 0.00 | 60 | 1017.1 |
| 20260502130503 | 41 | 312 | 0.0 | 0.9 | 0.00 | 0.00 | 0.00 | 67 | 1017.1 |
| 20260502123503 | 41 | 334 | 0.0 | 0.9 | 0.00 | 0.00 | 0.00 | 69 | 1016.7 |
| 20260502123003 | 41 | 334 | 0.0 | 0.0 | 0.00 | 0.00 | 0.00 | 69 | 1016.7 |
| 20260502122503 | 41 | 346 | 0.0 | 0.0 | 0.00 | 0.00 | 0.00 | 69 | 1016.7 |
| 20260502122003 | 41 | 32 | 0.0 | 0.0 | 0.00 | 0.00 | 0.00 | 69 | 1016.7 |
| 20260502121503 | 41 | 339 | 0.0 | 0.9 | 0.00 | 0.00 | 0.00 | 68 | 1016.7 |
| 20260502121004 | 41 | 354 | 0.0 | 0.9 | 0.00 | 0.00 | 0.00 | 68 | 1016.9 |
| 20260502120503 | 41 | 30 | 0.0 | 0.0 | 0.00 | 0.00 | 0.00 | 67 | 1016.9 |
| 20260502115503 | 41 | 345 | 0.0 | 0.0 | 0.00 | 0.00 | 0.00 | 67 | 1016.9 |
| 20260502115003 | 41 | 306 | 0.0 | 0.0 | 0.00 | 0.00 | 0.00 | 68 | 1016.9 |
| 20260502114503 | 41 | 345 | 0.0 | 0.0 | 0.00 | 0.00 | 0.00 | 69 | 1016.9 |
| 20260502114025 | 41 | 342 | 0.0 | 0.0 | 0.00 | 0.00 | 0.00 | 69 | 1016.7 |
| 20260502113503 | 40 | 342 | 0.0 | 0.0 | 0.00 | 0.00 | 0.00 | 68 | 1016.6 |
| 20260502113003 | 40 | 342 | 0.0 | 0.0 | 0.00 | 0.00 | 0.00 | 67 | 1016.6 |
| 20260502112502 | 40 | 306 | 0.0 | 0.0 | 0.00 | 0.00 | 0.00 | 68 | 1016.5 |
| 20260502112004 | 40 | 306 | 0.0 | 0.0 | 0.00 | 0.00 | 0.00 | 68 | 1016.4 |
| 20260502111503 | 40 | 306 | 0.0 | 0.0 | 0.00 | 0.00 | 0.00 | 68 | 1016.4 |
| 20260502111026 | 40 | 306 | 0.0 | 0.0 | 0.00 | 0.00 | 0.00 | 68 | 1016.4 |
| 20260502110503 | 40 | 306 | 0.0 | 0.0 | 0.00 | 0.00 | 0.00 | 68 | 1016.5 |
| 20260502110004 | 40 | 306 | 0.0 | 0.0 | 0.00 | 0.00 | 0.00 | 66 | 1016.3 |
| 20260502105502 | 40 | 306 | 0.0 | 0.0 | 0.00 | 0.00 | 0.00 | 67 | 1016.3 |
| 20260502105003 | 40 | 306 | 0.0 | 0.0 | 0.00 | 0.00 | 0.00 | 67 | 1016.3 |
| 20260502104502 | 40 | 306 | 0.0 | 0.9 | 0.00 | 0.00 | 0.00 | 67 | 1016.3 |
| 20260502104003 | 40 | 297 | 0.0 | 0.9 | 0.00 | 0.00 | 0.00 | 68 | 1016.3 |
| 20260502103503 | 40 | 5 | 0.0 | 0.0 | 0.00 | 0.00 | 0.00 | 66 | 1016.4 |
| 20260502103003 | 40 | 316 | 0.0 | 0.0 | 0.00 | 0.00 | 0.00 | 66 | 1016.3 |
| 20260502102503 | 40 | 55 | 0.0 | 0.0 | 0.00 | 0.00 | 0.00 | 67 | 1016.4 |
| 20260502102003 | 40 | 55 | 0.0 | 0.0 | 0.00 | 0.00 | 0.00 | 66 | 1016.5 |
| 20260502101505 | 41 | 55 | 0.0 | 0.0 | 0.00 | 0.00 | 0.00 | 67 | 1016.4 |
| 20260502101003 | 41 | 55 | 0.0 | 0.0 | 0.00 | 0.00 | 0.00 | 67 | 1016.5 |
| 20260502100525 | 41 | 56 | 0.0 | 0.0 | 0.00 | 0.00 | 0.00 | 67 | 1016.7 |
| 20260502091503 | 42 | 350 | 0.0 | 2.6 | 0.00 | 0.00 | 0.00 | 69 | 1016.8 |
| 20260502091003 | 42 | 13 | 0.0 | 0.0 | 0.00 | 0.00 | 0.00 | 70 | 1016.7 |
| 20260502090503 | 42 | 329 | 0.0 | 0.0 | 0.00 | 0.00 | 0.00 | 70 | 1016.6 |
| 20260502071503 | 44 | 5 | 0.0 | 0.0 | 0.00 | 0.00 | 0.00 | 78 | 1015.9 |
| 20260502071003 | 44 | 355 | 0.0 | 0.0 | 0.00 | 0.00 | 0.00 | 78 | 1015.9 |
| 20260502070524 | 44 | 36 | 0.0 | 0.0 | 0.00 | 0.00 | 0.00 | 78 | 1016.0 |
| 20260502070003 | 44 | 360 | 0.0 | 0.0 | 0.00 | 0.00 | 0.00 | 78 | 1016.1 |
| 20260502065503 | 44 | 310 | 0.0 | 0.0 | 0.00 | 0.00 | 0.00 | 78 | 1016.2 |
| 20260502065002 | 44 | 31 | 0.0 | 0.0 | 0.00 | 0.00 | 0.00 | 77 | 1016.2 |
| 20260502064503 | 44 | 311 | 0.0 | 0.0 | 0.00 | 0.00 | 0.00 | 77 | 1016.2 |
| 20260502064003 | 44 | 311 | 0.0 | 0.0 | 0.00 | 0.00 | 0.00 | 77 | 1016.4 |
| 20260502063502 | 44 | 310 | 0.0 | 0.0 | 0.00 | 0.00 | 0.00 | 77 | 1016.4 |
| 20260502063024 | 44 | 309 | 0.0 | 0.0 | 0.00 | 0.00 | 0.00 | 77 | 1016.5 |
| 20260502062503 | 44 | 329 | 0.0 | 0.0 | 0.00 | 0.00 | 0.00 | 77 | 1016.5 |
| 20260502062004 | 44 | 323 | 0.0 | 0.0 | 0.00 | 0.00 | 0.00 | 76 | 1016.5 |
| 20260502061003 | 44 | 360 | 0.0 | 0.0 | 0.00 | 0.00 | 0.00 | 76 | 1016.6 |
| 20260502060503 | 44 | 335 | 0.0 | 0.0 | 0.00 | 0.00 | 0.00 | 76 | 1016.6 |
| 20260502060003 | 44 | 5 | 0.0 | 0.0 | 0.00 | 0.00 | 0.00 | 76 | 1016.7 |
| 20260502055524 | 45 | 5 | 0.0 | 0.0 | 0.00 | 0.00 | 0.00 | 76 | 1016.6 |
| 20260502055024 | 45 | 311 | 0.0 | 0.0 | 0.00 | 0.00 | 0.00 | 76 | 1016.6 |
| 20260502054502 | 45 | 321 | 0.0 | 0.0 | 0.00 | 0.00 | 0.00 | 76 | 1016.6 |
| 20260502054003 | 45 | 321 | 0.0 | 0.0 | 0.00 | 0.00 | 0.00 | 75 | 1016.8 |
| 20260502053503 | 45 | 321 | 0.0 | 0.0 | 0.00 | 0.00 | 0.00 | 75 | 1016.7 |
| 20260502053002 | 46 | 321 | 0.0 | 0.0 | 0.00 | 0.00 | 0.00 | 74 | 1016.6 |
| 20260502052503 | 46 | 321 | 0.0 | 0.0 | 0.00 | 0.00 | 0.00 | 74 | 1016.6 |
| 20260502052003 | 46 | 334 | 0.0 | 0.0 | 0.00 | 0.00 | 0.00 | 74 | 1016.6 |
| 20260502051502 | 46 | 327 | 0.0 | 0.0 | 0.00 | 0.00 | 0.00 | 75 | 1016.6 |
| 20260502051003 | 46 | 24 | 0.0 | 0.0 | 0.00 | 0.00 | 0.00 | 74 | 1016.5 |
| 20260502050503 | 46 | 335 | 0.0 | 0.0 | 0.00 | 0.00 | 0.00 | 74 | 1016.5 |
| 20260502050003 | 46 | 348 | 0.0 | 0.0 | 0.00 | 0.00 | 0.00 | 74 | 1016.5 |
| 20260502045503 | 46 | 355 | 0.0 | 0.0 | 0.00 | 0.00 | 0.00 | 74 | 1016.4 |
| 20260502045003 | 46 | 333 | 0.0 | 4.3 | 0.00 | 0.00 | 0.00 | 74 | 1016.6 |
| 20260502044503 | 46 | 309 | 0.0 | 4.3 | 0.00 | 0.00 | 0.00 | 74 | 1016.6 |
| 20260502044002 | 47 | 303 | 0.0 | 0.9 | 0.00 | 0.00 | 0.00 | 74 | 1016.5 |
| 20260502043503 | 47 | 309 | 0.0 | 0.9 | 0.00 | 0.00 | 0.00 | 74 | 1016.6 |
| 20260502043003 | 47 | 309 | 0.0 | 0.9 | 0.00 | 0.00 | 0.00 | 75 | 1016.6 |
| 20260502042503 | 47 | 46 | 0.0 | 0.9 | 0.00 | 0.00 | 0.00 | 75 | 1016.6 |
| 20260502042046 | 47 | 288 | 0.0 | 0.9 | 0.00 | 0.00 | 0.00 | 75 | 1016.5 |
| 20260502041502 | 47 | 271 | 0.0 | 0.9 | 0.00 | 0.00 | 0.00 | 76 | 1016.5 |
| 20260502041003 | 47 | 273 | 0.0 | 0.0 | 0.00 | 0.00 | 0.00 | 76 | 1016.4 |
| 20260502040503 | 47 | 349 | 0.0 | 0.0 | 0.00 | 0.00 | 0.00 | 76 | 1016.3 |
| 20260502040003 | 47 | 347 | 0.0 | 0.0 | 0.00 | 0.00 | 0.00 | 76 | 1016.4 |
| 20260502035524 | 47 | 347 | 0.0 | 0.0 | 0.00 | 0.00 | 0.00 | 76 | 1016.4 |
| 20260502035003 | 47 | 347 | 0.0 | 0.0 | 0.00 | 0.00 | 0.00 | 76 | 1016.3 |
| 20260502034503 | 48 | 347 | 0.0 | 0.0 | 0.00 | 0.00 | 0.00 | 76 | 1016.4 |
| 20260502034003 | 48 | 347 | 0.0 | 0.0 | 0.00 | 0.00 | 0.00 | 76 | 1016.4 |
| 20260502033503 | 48 | 348 | 0.0 | 0.0 | 0.00 | 0.00 | 0.00 | 75 | 1016.4 |
| 20260502033003 | 48 | 348 | 0.0 | 0.0 | 0.00 | 0.00 | 0.00 | 75 | 1016.5 |
| 20260502032525 | 48 | 348 | 0.0 | 0.0 | 0.00 | 0.00 | 0.00 | 75 | 1016.4 |
| 20260502032003 | 48 | 348 | 0.0 | 0.0 | 0.00 | 0.00 | 0.00 | 74 | 1016.5 |
| 20260502031505 | 48 | 328 | 0.0 | 0.0 | 0.00 | 0.00 | 0.00 | 74 | 1016.4 |
| 20260502031003 | 49 | 325 | 0.0 | 0.0 | 0.00 | 0.00 | 0.00 | 74 | 1016.4 |
| 20260502030503 | 49 | 333 | 0.0 | 0.0 | 0.00 | 0.00 | 0.00 | 73 | 1016.3 |
| 20260502030024 | 49 | 320 | 0.0 | 0.0 | 0.00 | 0.00 | 0.00 | 73 | 1016.2 |
| 20260502025503 | 49 | 300 | 0.0 | 0.0 | 0.00 | 0.00 | 0.00 | 72 | 1016.2 |
| 20260502025003 | 49 | 340 | 0.0 | 0.0 | 0.00 | 0.00 | 0.00 | 72 | 1016.3 |
| 20260502024503 | 50 | 325 | 0.0 | 0.0 | 0.00 | 0.00 | 0.00 | 71 | 1016.4 |
| 20260502024003 | 50 | 325 | 0.0 | 0.0 | 0.00 | 0.00 | 0.00 | 71 | 1016.4 |
| 20260502023503 | 50 | 343 | 0.0 | 0.0 | 0.00 | 0.00 | 0.00 | 70 | 1016.4 |
| 20260502023003 | 51 | 315 | 0.0 | 0.9 | 0.00 | 0.00 | 0.00 | 69 | 1016.3 |
| 20260502022503 | 51 | 59 | 0.0 | 0.9 | 0.00 | 0.00 | 0.00 | 68 | 1016.2 |
| 20260502022023 | 52 | 321 | 0.0 | 0.0 | 0.00 | 0.00 | 0.00 | 66 | 1016.1 |
| 20260502021503 | 53 | 339 | 0.0 | 0.0 | 0.00 | 0.00 | 0.00 | 65 | 1015.9 |
| 20260502021003 | 53 | 336 | 0.0 | 0.0 | 0.00 | 0.00 | 0.00 | 64 | 1015.7 |
| 20260502020503 | 53 | 5 | 0.0 | 0.0 | 0.00 | 0.00 | 0.00 | 65 | 1015.5 |
| 20260502020024 | 53 | 331 | 0.0 | 0.9 | 0.00 | 0.00 | 0.00 | 64 | 1015.2 |
| 20260502015503 | 53 | 338 | 0.0 | 0.9 | 0.00 | 0.00 | 0.00 | 66 | 1014.9 |
| 20260502015003 | 54 | 345 | 0.0 | 0.0 | 0.00 | 0.00 | 0.00 | 68 | 1014.7 |
| 20260502014503 | 54 | 327 | 0.0 | 0.0 | 0.00 | 0.00 | 0.00 | 68 | 1014.3 |
| 20260502014003 | 54 | 19 | 0.0 | 0.0 | 0.00 | 0.00 | 0.00 | 66 | 1014.3 |
| 20260502013503 | 54 | 235 | 0.0 | 0.0 | 0.00 | 0.00 | 0.00 | 65 | 1014.4 |
| 20260502013024 | 54 | 338 | 0.0 | 0.0 | 0.00 | 0.00 | 0.00 | 66 | 1014.4 |
| 20260502012503 | 54 | 300 | 0.0 | 1.7 | 0.00 | 0.00 | 0.00 | 65 | 1014.3 |
| 20260502012002 | 54 | 207 | 0.0 | 1.7 | 0.00 | 0.00 | 0.00 | 65 | 1014.4 |
| 20260502011524 | 54 | 264 | 0.0 | 0.9 | 0.00 | 0.00 | 0.00 | 65 | 1014.4 |
| 20260502011046 | 54 | 9 | 0.0 | 0.9 | 0.00 | 0.00 | 0.00 | 65 | 1014.3 |
| 20260502010503 | 54 | 228 | 0.0 | 0.9 | 0.00 | 0.00 | 0.00 | 65 | 1014.3 |
| 20260502010003 | 55 | 44 | 0.0 | 0.0 | 0.00 | 0.00 | 0.00 | 65 | 1014.2 |
| 20260502005503 | 55 | 45 | 0.0 | 0.9 | 0.00 | 0.00 | 0.00 | 64 | 1014.2 |
| 20260502005024 | 55 | 306 | 0.0 | 0.9 | 0.00 | 0.00 | 0.00 | 63 | 1014.1 |
| 20260502004503 | 55 | 355 | 0.0 | 0.9 | 0.00 | 0.00 | 0.00 | 63 | 1014.0 |
| 20260502004003 | 55 | 193 | 0.0 | 0.9 | 0.00 | 0.00 | 0.00 | 63 | 1013.8 |
| 20260502003503 | 55 | 178 | 0.0 | 0.9 | 0.00 | 0.00 | 0.00 | 63 | 1013.7 |
| 20260502003003 | 55 | 257 | 0.0 | 0.0 | 0.00 | 0.00 | 0.00 | 62 | 1013.6 |
| 20260502002524 | 55 | 318 | 0.0 | 3.5 | 0.00 | 0.00 | 0.00 | 62 | 1013.6 |
| 20260502002003 | 55 | 199 | 0.0 | 3.5 | 0.00 | 0.00 | 0.00 | 62 | 1013.6 |
| 20260502001503 | 55 | 202 | 0.0 | 2.6 | 0.00 | 0.00 | 0.00 | 61 | 1013.4 |
| 20260502001002 | 55 | 59 | 0.0 | 1.7 | 0.00 | 0.00 | 0.00 | 61 | 1013.3 |
| 20260502000524 | 55 | 159 | 0.0 | 1.7 | 0.00 | 0.00 | 0.00 | 61 | 1013.2 |
| 20260502000003 | 55 | 164 | 0.0 | 3.5 | 0.00 | 0.00 | 0.00 | 60 | 1013.2 |
| 20260501235503 | 56 | 18 | 0.0 | 3.5 | 0.00 | 0.00 | 0.00 | 60 | 1013.2 |
| 20260501235003 | 56 | 84 | 0.0 | 1.7 | 0.00 | 0.00 | 0.00 | 60 | 1013.1 |
| 20260501234503 | 56 | 98 | 0.0 | 1.7 | 0.00 | 0.00 | 0.00 | 59 | 1013.0 |
| 20260501234045 | 56 | 202 | 0.0 | 3.5 | 0.00 | 0.00 | 0.00 | 58 | 1013.0 |
| 20260501233503 | 56 | 134 | 0.0 | 3.5 | 0.00 | 0.00 | 0.00 | 58 | 1013.0 |
| 20260501233024 | 56 | 90 | 0.0 | 2.6 | 0.00 | 0.00 | 0.00 | 58 | 1012.9 |
| 20260501232503 | 56 | 67 | 0.0 | 2.6 | 0.00 | 0.00 | 0.00 | 58 | 1012.9 |
| 20260501232003 | 56 | 5 | 0.0 | 4.3 | 0.00 | 0.00 | 0.00 | 58 | 1012.8 |
| 20260501231503 | 56 | 71 | 0.0 | 6.1 | 0.00 | 0.00 | 0.00 | 57 | 1012.8 |
| 20260501231024 | 57 | 171 | 0.9 | 6.1 | 0.00 | 0.00 | 0.00 | 57 | 1012.8 |
| 20260501230503 | 57 | 123 | 0.0 | 6.1 | 0.00 | 0.00 | 0.00 | 56 | 1013.0 |
| 20260501230003 | 57 | 219 | 0.0 | 3.5 | 0.00 | 0.00 | 0.00 | 56 | 1012.9 |
| 20260501225503 | 57 | 98 | 0.0 | 3.5 | 0.00 | 0.00 | 0.00 | 56 | 1012.9 |
| 20260501225002 | 57 | 287 | 0.0 | 0.9 | 0.00 | 0.00 | 0.00 | 55 | 1013.0 |
| 20260501224503 | 57 | 179 | 0.0 | 0.9 | 0.00 | 0.00 | 0.00 | 56 | 1012.9 |
| 20260501224024 | 57 | 310 | 0.0 | 0.9 | 0.00 | 0.00 | 0.00 | 56 | 1013.0 |
| 20260501223503 | 58 | 111 | 0.0 | 0.9 | 0.00 | 0.00 | 0.00 | 55 | 1013.0 |
| 20260501223002 | 58 | 277 | 0.0 | 0.9 | 0.00 | 0.00 | 0.00 | 54 | 1012.8 |
| 20260501222524 | 58 | 115 | 0.0 | 0.0 | 0.00 | 0.00 | 0.00 | 53 | 1013.1 |
| 20260501222003 | 58 | 152 | 0.0 | 0.0 | 0.00 | 0.00 | 0.00 | 53 | 1013.0 |
| 20260501221503 | 58 | 111 | 0.0 | 1.7 | 0.00 | 0.00 | 0.00 | 53 | 1013.0 |